sat.trackr.live / text

‹ back to catalog

YAOGAN-33 02

NORAD 53698 · 2022-106A

PAYLOAD ACTIVE UNKNOWN

§ Identity

Operator
Country
PRC
Launch date
2022-09-02
Launch site
JSC
Launch vehicle
Mass (kg)
RCS (m²)

External: N2YO · Heavens-Above · Gunter

§ Orbital elements

Epoch: 2026-05-25T05:12:12.897216Z

Period
98.72 min
Inclination
98.1811°
Eccentricity
0.0001204
Mean motion
14.58716103 rev/d
Perigee alt
696.5 km
Apogee alt
698.2 km
Semi-major
7,075.5 km
B*
3.6189e-5
RAAN
153.4244°
Arg perigee
181.1975°
Mean anomaly
178.9222°
Rev number
19,837

§ Raw data

YAOGAN-33 021 53698U 22106A   26145.21681594  .00000123  00000+0  36189-4 0  99922 53698  98.1811 153.4244 0001204 181.1975 178.9222 14.58716103198378

JSON: /api/v1/satellites/53698 · /tle

For live sub-satellite position, see the globe view (requires WebGL).

§ Visibility from observer

Set your observer location to see the next 7 days of passes ≥ 10°. The values pass through the URL so the page stays shareable.

No JS? Fill the form by hand. The geolocation button needs JavaScript.